This demonstration page uses our WeatherBlox Daily Observations layout. Learn more.

Left ArrowRight Arrow

41.86663, -103.66717

Hourly Observations for November 10, 2016

Temp ( °F °C ) Dew Point ( °F °C ) Humidity (%) Winds ( mph kmh ) Pressure ( in mb ) Visibility ( mi km ) Precip ( " mm )
12:53 am 00:53 Clear 33 0.6 24 -4.4 70 70 NW 3 6 30.15 1021 10 16 N/A
1:53 am 01:53 Clear 39 3.9 25 -3.9 57 57 NW 7 11 30.14 1021 10 16 N/A
2:53 am 02:53 Clear 39 3.9 25 -3.9 57 57 NW 8 13 30.14 1021 10 16 N/A
3:53 am 03:53 Clear 38 3.3 25 -3.9 60 60 NW 9 15 30.16 1022 10 16 N/A
4:53 am 04:53 Clear with Light Snow 35 1.7 25 -3.9 67 67 NW 8 13 30.22 1024 9 14 N/A
5:53 am 05:53 Clear 37 2.8 26 -3.3 65 65 NW 7 11 30.25 1025 10 16 N/A
6:53 am 06:53 Sunny 38 3.3 26 -3.3 62 62 NNW 9 15 30.29 1026 10 16 N/A
7:53 am 07:53 Sunny 45 7.2 29 -1.7 54 54 WNW 12 19 30.30 1026 10 16 N/A
8:53 am 08:53 Sunny 54 12.2 30 -1.1 40 40 WNW 13 20 30.30 1026 10 16 N/A
9:53 am 09:53 Sunny 60 15.6 31 -0.6 33 33 WNW 9 15 30.31 1026 10 16 N/A
10:53 am 10:53 Sunny 67 19.4 31 -0.6 26 26 N 12 19 30.30 1026 10 16 N/A
11:12 am 11:12 Sunny with Light Rain 70 21 27 -3 20 20 NNE 18 30 30.12 1020 10 16 N/A
11:53 am 11:53 Sunny with Light Rain 70 21.1 25 -3.9 18 18 NNE 21 33 30.29 1026 10 16 N/A
12:53 pm 12:53 Sunny 70 21.1 26 -3.3 19 19 N 23 37 30.29 1026 10 16 N/A
1:53 pm 13:53 Sunny 69 20.6 28 -2.2 22 22 NE 18 30 30.29 1026 10 16 N/A
2:53 pm 14:53 Sunny 68 20 27 -2.8 21 21 NE 15 24 30.30 1026 10 16 N/A
3:53 pm 15:53 Sunny 64 17.8 28 -2.2 26 26 NNE 13 20 30.33 1027 10 16 N/A
4:53 pm 16:53 Clear 55 12.8 28 -2.2 35 35 NNE 7 11 30.39 1029 10 16 N/A
5:53 pm 17:53 Clear 46 7.8 27 -2.8 47 47 NNE 7 11 30.43 1030 10 16 N/A
6:53 pm 18:53 Clear 46 7.8 29 -1.7 51 51 NNE 12 19 30.45 1031 10 16 N/A
7:53 pm 19:53 Clear 44 6.7 30 -1.1 58 58 NNE 12 19 30.44 1031 10 16 N/A
8:53 pm 20:53 Clear 42 5.6 30 -1.1 62 62 NNE 8 13 30.44 1031 10 16 N/A
9:53 pm 21:53 Clear 44 6.7 31 -0.6 60 60 N N/A 30.43 1031 7 11 N/A
10:53 pm 22:53 Clear 41 5 30 -1.1 65 65 S 5 7 30.43 1030 10 16 N/A
11:53 pm 23:53 Clear 39 3.9 29 -1.7 67 67 N N/A 30.43 1031 10 16 N/A

Powered by AerisWeather